Greenville/Spartanburg, SC

5:34 AM EDT on April 26, 2018 (GMT -0400)
Greenville-Spartanburg International

Weather History for KGSP - August, 2014

Change the Weather History Date:

Friday, August 29, 2014

  Actual Average Record
Temperature  
Mean Temperature 79 °F 77 °F  
Max Temperature 91 °F 87 °F 100 °F (1948)
Min Temperature 66 °F 67 °F 50 °F (1905)
Degree Days  
Heating Degree Days 0 0  
Month to date heating degree days 0 0  
Since 1 June heating degree days 0 2  
Since 1 July heating degree days 0 0  
Cooling Degree Days 14 12  
Month to date cooling degree days 341 400  
Year to date cooling degree days 1367 1412  
Since 1 June cooling degree days 1111 1211  
Growing Degree Days 28 (Base 50)    
Moisture  
Dew Point 68 °F    
Average Humidity 67    
Maximum Humidity 90    
Minimum Humidity 44    
Precipitation  
Precipitation 0.00 in 0.13 in 2.42 in (1923)
Month to date precipitation 5.21 4.23  
Year to date precipitation 34.57 32.26  
Snow  
Snow 0.00 in 0.00 in 0.00 in ()
Month to date snowfall 0.0 0.0  
Since 1 June snowfall 0.0 0.0  
Since 1 July snowfall 0.0 0.0  
Snow Depth 0.00 in    
Sea Level Pressure  
Sea Level Pressure 30.05 in    
Wind  
Wind Speed 4 mph (NE)    
Max Wind Speed 13 mph    
Max Gust Speed 16 mph    
Visibility 10 miles    
Events      
T = Trace of Precipitation, MM = Missing Value Source: NWS Daily Summary

Daily Weather History Graph

Daily Weather History Graph

Search for Another Location

Airport or City:

Astronomy

Aug. 29, 2014 Rise Set
Actual Time 6:59 AM EDT 7:59 PM EDT
Civil Twilight 6:33 AM EDT 8:25 PM EDT
Nautical Twilight 6:02 AM EDT 8:56 PM EDT
Astronomical Twilight 5:30 AM EDT 9:27 PM EDT
Moon 10:37 AM EDT (8/29) 10:07 PM EDT (8/29)
Length of Visible Light 13h 51m
Length of Day
13h 00m
Waxing Crescent, 15% of the Moon is Illuminated
Aug 29
Waxing Crescent
Sep 2
First Quarter
Sep 8
Full
Sep 15
Last Quarter
Sep 24
New

Hourly Weather History & Observations

Time (EDT) Temp. Heat Index Dew Point Humidity Pressure Visibility Wind Dir Wind Speed Gust Speed Precip Events Conditions
12:53 AM 73.9 °F - 66.9 °F 79% 30.00 in 10.0 mi Calm Calm - N/A   Clear
1:53 AM 72.0 °F - 66.9 °F 84% 30.00 in 10.0 mi Calm Calm - N/A   Clear
2:53 AM 71.1 °F - 66.9 °F 87% 30.00 in 10.0 mi Calm Calm - N/A   Clear
3:53 AM 70.0 °F - 66.9 °F 90% 30.00 in 10.0 mi Calm Calm - N/A   Clear
4:53 AM 69.1 °F - 66.9 °F 93% 30.01 in 10.0 mi Calm Calm - N/A   Clear
5:53 AM 69.1 °F - 66.9 °F 93% 30.01 in 10.0 mi Calm Calm - N/A   Clear
6:53 AM 68.0 °F - 64.0 °F 87% 30.04 in 10.0 mi Calm Calm - N/A   Clear
7:53 AM 68.0 °F - 64.9 °F 90% 30.07 in 10.0 mi Calm Calm - N/A   Clear
8:53 AM 75.9 °F - 66.9 °F 74% 30.07 in 10.0 mi North 5.8 mph - N/A   Clear
9:53 AM 78.1 °F - 70.0 °F 76% 30.07 in 10.0 mi NNE 10.4 mph - N/A   Partly Cloudy
10:53 AM 82.4 °F 86.3 °F 69.8 °F 66% 30.12 in 10.0 mi NE 9.2 mph - N/A   Clear
11:53 AM 82.9 °F 87.5 °F 71.1 °F 67% 30.09 in 10.0 mi NNE 9.2 mph - N/A   Clear
12:53 PM 86.0 °F 91.5 °F 71.1 °F 61% 30.07 in 10.0 mi NNE 6.9 mph - N/A   Clear
1:53 PM 88.0 °F 92.1 °F 69.1 °F 53% 30.06 in 10.0 mi Variable 3.5 mph - N/A   Clear
2:53 PM 88.0 °F 90.3 °F 66.0 °F 48% 30.06 in 10.0 mi NE 4.6 mph - N/A   Partly Cloudy
3:53 PM 89.6 °F 92.2 °F 66.2 °F 46% 30.07 in 10.0 mi Variable 5.8 mph - N/A   Scattered Clouds
4:53 PM 90.0 °F 91.3 °F 64.0 °F 42% 30.03 in 10.0 mi ENE 6.9 mph - N/A   Clear
5:53 PM 89.1 °F 90.3 °F 64.0 °F 43% 30.04 in 10.0 mi ESE 4.6 mph - N/A   Clear
6:53 PM 87.1 °F 89.9 °F 66.9 °F 51% 30.04 in 10.0 mi East 5.8 mph - N/A   Clear
7:53 PM 82.0 °F 85.5 °F 69.1 °F 65% 30.04 in 10.0 mi ENE 5.8 mph - N/A   Clear
8:53 PM 81.0 °F 84.4 °F 70.0 °F 69% 30.06 in 10.0 mi ENE 4.6 mph - N/A   Clear
9:53 PM 80.1 °F 83.6 °F 71.1 °F 74% 30.08 in 10.0 mi ENE 6.9 mph - N/A   Clear
10:53 PM 78.8 °F - 71.6 °F 78% 30.13 in 10.0 mi ENE 5.8 mph - N/A   Clear
11:53 PM 77.0 °F - 71.1 °F 82% 30.11 in 10.0 mi NE 4.6 mph - N/A   Clear